Weather History for Lee's Summit, MO

Change the Weather History Date:

Monday, December 10, 2012

  Actual Average (KMKC) Record (KMKC)
Temperature  
Mean Temperature 24 °F -  
Max Temperature 28 °F 43 °F 68 °F (1996)
Min Temperature 19 °F 27 °F 12 °F (2013)
Degree Days  
Heating Degree Days 42    
Moisture  
Dew Point 11 °F    
Average Humidity 61    
Maximum Humidity 68    
Minimum Humidity 53    
Precipitation  
Precipitation 0.00 in - - ()
Sea Level Pressure  
Sea Level Pressure 30.07 in    
Wind  
Wind Speed 12 mph (West)    
Max Wind Speed 20 mph    
Max Gust Speed 23 mph    
Visibility 10 miles    
Events      
Averages and records for this station are not official NWS values.
T = Trace of Precipitation, MM = Missing Value Source: NWS Daily Summary

Daily Weather History Graph

Daily Weather History Graph

Search for Another Location

Airport:

Trip Planner

Search our weather history database for the weather conditions in past years. The results will help you decide how hot, cold, wet, or windy it might be!

Date:

Astronomy

Dec. 10, 2012 Rise Set
Actual Time 7:25 AM CST 4:55 PM CST
Civil Twilight 6:55 AM CST 5:25 PM CST
Nautical Twilight 6:22 AM CST 5:58 PM CST
Astronomical Twilight 5:50 AM CST 6:31 PM CST
Moon 4:11 AM CST (12/10) 2:44 PM CST (12/10)
Length of Visible Light 10h 29m
Length of Day
9h 29m
Waning Crescent, 10% of the Moon is Illuminated
Dec 10
Waning Crescent
Dec 13
New
Dec 19
First Quarter
Dec 28
Full
Jan 4
Last Quarter

Hourly Weather History & Observations

Time (CST) Temp. Windchill Dew Point Humidity Pressure Visibility Wind Dir Wind Speed Gust Speed Precip Events Conditions
12:53 AM 21.0 °F 5.7 °F 10.0 °F 63% 30.07 in 10.0 mi NW 19.6 mph 23.0 mph N/A   Mostly Cloudy
1:53 AM 21.0 °F 7.6 °F 10.0 °F 63% 30.06 in 10.0 mi NW 15.0 mph 23.0 mph N/A   Overcast
2:53 AM 21.0 °F 8.6 °F 10.9 °F 65% 30.06 in 10.0 mi WNW 12.7 mph - N/A   Overcast
3:53 AM 19.9 °F 7.9 °F 10.9 °F 68% 30.05 in 10.0 mi NW 11.5 mph - N/A   Overcast
4:53 AM 19.9 °F 6.2 °F 10.0 °F 65% 30.07 in 10.0 mi NW 15.0 mph - N/A   Overcast
5:53 AM 19.9 °F 7.3 °F 10.0 °F 65% 30.07 in 10.0 mi NW 12.7 mph 17.3 mph N/A   Overcast
6:53 AM 19.9 °F 9.3 °F 10.0 °F 65% 30.10 in 10.0 mi WNW 9.2 mph - N/A   Overcast
7:27 AM 21.2 °F 10.1 °F 10.4 °F 63% 30.06 in 10.0 mi WNW 10.4 mph - N/A   Overcast
7:53 AM 21.0 °F 10.6 °F 10.9 °F 65% 30.12 in 10.0 mi WNW 9.2 mph - N/A   Overcast
9:53 AM 21.9 °F 11.0 °F 10.0 °F 60% 30.12 in 10.0 mi NW 10.4 mph - N/A   Overcast
10:53 AM 23.0 °F 11.1 °F 10.0 °F 58% 30.13 in 10.0 mi West 12.7 mph - N/A   Overcast
11:53 AM 24.1 °F 17.0 °F 12.0 °F 60% 30.10 in 10.0 mi West 5.8 mph - N/A   Overcast
12:53 PM 26.1 °F 17.6 °F 12.9 °F 58% 30.09 in 10.0 mi WNW 8.1 mph - N/A   Overcast
1:32 PM 28.4 °F 21.2 °F 15.8 °F 59% 30.04 in 10.0 mi WNW 6.9 mph - N/A   Scattered Clouds
1:53 PM 28.0 °F 20.8 °F 15.1 °F 58% 30.07 in 10.0 mi NW 6.9 mph - N/A   Clear
2:53 PM 28.0 °F 19.3 °F 14.0 °F 56% 30.06 in 10.0 mi West 9.2 mph - N/A   Clear
3:53 PM 28.0 °F 20.8 °F 12.9 °F 53% 30.06 in 10.0 mi West 6.9 mph - N/A   Clear
4:53 PM 26.1 °F 20.5 °F 12.9 °F 58% 30.06 in 10.0 mi WSW 4.6 mph - N/A   Clear
5:53 PM 25.0 °F 19.3 °F 12.9 °F 60% 30.05 in 10.0 mi SSW 4.6 mph - N/A   Clear
6:53 PM 24.1 °F 19.7 °F 12.0 °F 60% 30.05 in 10.0 mi SSW 3.5 mph - N/A   Clear
7:53 PM 21.9 °F 15.7 °F 10.9 °F 63% 30.07 in 10.0 mi SSW 4.6 mph - N/A   Clear
8:53 PM 23.0 °F 14.7 °F 10.9 °F 60% 30.07 in 10.0 mi SSW 6.9 mph - N/A   Clear
9:53 PM 21.0 °F 11.4 °F 10.9 °F 65% 30.06 in 10.0 mi SSW 8.1 mph - N/A   Clear
10:53 PM 21.9 °F 14.5 °F 10.9 °F 63% 30.06 in 10.0 mi SSW 5.8 mph - N/A   Clear
11:53 PM 23.0 °F 13.9 °F 10.0 °F 58% 30.06 in 10.0 mi SSW 8.1 mph - N/A   Clear